Home   Weather   Overland Park   Past weeks

Flag for USA Past Weather in Overland Park, Kansas, USA — Yesterday and Last 2 Weeks

Now
51 °F

Clear.


Feels Like: 51 °F
Forecast: 46 / 74 °F
Wind: No wind

Location: Johnson County Executive Airport

Current Time: Apr 24, 2017 at 12:53:24 am

Latest Report: Apr 23, 2017 at 11:53 pm


Visibility: 10 mi

Pressure: 29.97 "Hg

Humidity: 63%

Dew Point: 39 °F

Location of Overland ParkLocation

Past Weather in Overland Park — Graph

°F

Overland Park Temperature Yesterday

Maximum temperature yesterday: 69 °F (at 4:53 pm)
Minimum temperature yesterday: 41 °F (at 6:53 am)
Average temperature yesterday: 56 °F

High & Low Weather Summary for the Past Weeks

 TemperatureHumidityPressure
High78 °F (Apr 15, 4:53 pm)100% (Apr 14, 4:53 am)30.33 "Hg (Apr 14, 4:53 am)
Low36 °F (Apr 11, 6:53 am)25% (Apr 22, 4:53 pm)29.56 "Hg (Apr 9, 4:53 pm)
Average62 °F69%30.01 "Hg
* Reported Apr 8 10:53 pm — Apr 23 10:53 pm, Overland Park, Weather by CustomWeather, © 2017

Note: Actual official high and low records may vary slightly from our data, if they occured in-between our weather recording intervals... More about our weather records

Advertising

Overland Park Weather History for the Previous 24 Hours

Scroll right to see more
 ConditionsComfort  
Time TempWeatherWind HumidityBarometerVisibility
10:53 pm
Sun, Apr 23
53 °FClear.3 mph59%29.99 "Hg10 mi
9:53 pm55 °FClear.3 mph55%29.99 "Hg10 mi
8:53 pm57 °FClear.5 mph53%29.98 "Hg10 mi
7:53 pm61 °FSunny.3 mph41%29.99 "Hg10 mi
6:53 pm65 °FSunny.8 mph36%30.01 "Hg10 mi
5:53 pm67 °FSunny.5 mph26%30.03 "Hg10 mi
4:53 pm69 °FSunny.3 mph26%30.05 "Hg10 mi
3:53 pm67 °FSunny.No wind26%30.07 "Hg10 mi
2:53 pm68 °FSunny.No wind27%30.09 "Hg10 mi
1:53 pm66 °FSunny.No wind28%30.11 "Hg10 mi
12:53 pm63 °FSunny.No wind28%30.13 "Hg10 mi
11:53 am62 °FSunny.No wind32%30.15 "Hg10 mi
10:53 am60 °FSunny.3 mph35%30.16 "Hg10 mi
9:53 am58 °FSunny.3 mph41%30.17 "Hg10 mi
8:53 am55 °FSunny.3 mph51%30.17 "Hg10 mi
7:53 am48 °FSunny.6 mph59%30.18 "Hg10 mi
6:53 am41 °FSunny.6 mph76%30.16 "Hg10 mi
5:53 am44 °FClear.7 mph65%30.15 "Hg10 mi
4:53 am45 °FClear.6 mph63%30.15 "Hg10 mi
3:53 am47 °FClear.7 mph56%30.15 "Hg10 mi
2:53 am46 °FClear.5 mph58%30.16 "Hg10 mi
1:53 am50 °FClear.5 mph48%30.16 "Hg10 mi
12:53 am50 °FClear.5 mph50%30.18 "Hg10 mi
Weather by CustomWeather, © 2017

See weather overviewHow to use our weather pages